Location: *
(32.8140°S, 174.6161°E)
Time: 17:49:23
(UTC+00:00)

SL-16 R/B - Pass Details

Date: 10 December 2019
Orbit: 985 x 1007 km, 99.4° (Epoch: 26 January)

Event Time Altitude Azimuth Distance (km) Brightness Sun altitude
Rises 14:30:19 0° 161° (SSE) 3,766 6.8 -25.5°
Reaches altitude 10° 14:32:54 10° 156° (SSE) 2,808 5.9 -25.2°
Maximum altitude 14:39:04 54° 79° (E) 1,220 3.1 -24.4°
Enters shadow 14:41:57 31° 18° (NNE) 1,698 3.4 -24.1°
